AFL2864 URKK-UWUU

Flight info

Callsign AFL2864
Flight time 3h 10m
Altitude 35000
Route SM B950 AG B549 IRGID A944 GUBOR G487 ERSAR DCT BEMES/K0839F370 DCT ITAKA N154 AKT N60 ATR/K0837F360 M158 URL/K0833F370 M158 DILUP DILUP3L
Aircraft B738/M-SDE2E3FGHIRWXY/LB1

Departure

Time 2026-05-08 10:18
Airport Krasnodar Pashkovsky International Airport (URKK)

Arrival

Time 2026-05-08 13:29
Airport Ufa International Airport (UWUU)
Time Latitude Longitude Altitude Speed Heading
2026-05-08 09:35 45.03506 39.14226 104 ft 0 kts 331°
2026-05-08 10:03 45.03493 39.14236 105 ft 2 kts 331°
2026-05-08 10:03 45.03479 39.14247 105 ft 2 kts 331°
2026-05-08 10:03 45.03465 39.14258 105 ft 2 kts 351°
2026-05-08 10:04 45.03453 39.14248 104 ft 2 kts 65°
2026-05-08 10:04 45.03450 39.14240 103 ft 0 kts 61°
2026-05-08 10:06 45.03469 39.14287 104 ft 13 kts 60°
2026-05-08 10:06 45.03515 39.14401 105 ft 13 kts 60°
2026-05-08 10:06 45.03559 39.14512 105 ft 13 kts 60°
2026-05-08 10:07 45.03601 39.14619 105 ft 12 kts 60°
2026-05-08 10:07 45.03643 39.14724 105 ft 12 kts 60°
2026-05-08 10:07 45.03687 39.14834 104 ft 17 kts 60°
2026-05-08 10:07 45.03748 39.14989 105 ft 18 kts 60°
2026-05-08 10:08 45.03809 39.15142 105 ft 17 kts 60°
2026-05-08 10:08 45.03822 39.15306 105 ft 19 kts 111°
2026-05-08 10:08 45.03770 39.15481 105 ft 20 kts 112°
2026-05-08 10:08 45.03736 39.15662 105 ft 19 kts 91°
2026-05-08 10:09 45.03737 39.15847 105 ft 18 kts 89°
2026-05-08 10:09 45.03739 39.16025 105 ft 18 kts 89°
2026-05-08 10:09 45.03675 39.16169 105 ft 19 kts 142°
2026-05-08 10:09 45.03563 39.16289 105 ft 21 kts 142°
2026-05-08 10:10 45.03451 39.16411 105 ft 20 kts 142°
2026-05-08 10:10 45.03344 39.16527 105 ft 19 kts 142°
2026-05-08 10:10 45.03238 39.16640 105 ft 19 kts 142°
2026-05-08 10:10 45.03129 39.16759 105 ft 20 kts 142°
2026-05-08 10:11 45.03019 39.16876 105 ft 19 kts 143°
2026-05-08 10:11 45.02914 39.16991 105 ft 19 kts 142°
2026-05-08 10:11 45.02813 39.17102 105 ft 18 kts 141°
2026-05-08 10:11 45.02774 39.17234 105 ft 16 kts 54°
2026-05-08 10:12 45.02855 39.17384 106 ft 20 kts 52°
2026-05-08 10:12 45.02936 39.17534 106 ft 19 kts 52°
2026-05-08 10:12 45.03016 39.17681 106 ft 19 kts 52°
2026-05-08 10:12 45.03097 39.17830 106 ft 19 kts 52°
2026-05-08 10:13 45.03176 39.17974 106 ft 19 kts 52°
2026-05-08 10:13 45.03258 39.18126 106 ft 19 kts 52°
2026-05-08 10:13 45.03339 39.18275 106 ft 19 kts 52°
2026-05-08 10:13 45.03417 39.18420 106 ft 18 kts 52°
2026-05-08 10:14 45.03497 39.18565 106 ft 20 kts 52°
2026-05-08 10:14 45.03579 39.18717 106 ft 19 kts 52°
2026-05-08 10:14 45.03659 39.18864 106 ft 19 kts 52°
2026-05-08 10:14 45.03742 39.19017 106 ft 20 kts 52°
2026-05-08 10:15 45.03824 39.19170 106 ft 19 kts 52°
2026-05-08 10:15 45.03904 39.19317 106 ft 19 kts 52°
2026-05-08 10:15 45.03981 39.19459 106 ft 18 kts 52°
2026-05-08 10:15 45.04056 39.19597 107 ft 17 kts 53°
2026-05-08 10:16 45.04128 39.19729 107 ft 17 kts 52°
2026-05-08 10:16 45.04197 39.19857 107 ft 16 kts 52°
2026-05-08 10:16 45.04263 39.19981 107 ft 15 kts 53°
2026-05-08 10:16 45.04325 39.20101 107 ft 15 kts 57°
2026-05-08 10:17 45.04322 39.20233 108 ft 14 kts 129°
2026-05-08 10:17 45.04239 39.20287 116 ft 14 kts 195°
2026-05-08 10:17 45.04148 39.20151 117 ft 31 kts 232°
2026-05-08 10:17 45.03861 39.19621 114 ft 104 kts 232°
2026-05-08 10:18 45.03297 39.18570 117 ft 163 kts 234°
2026-05-08 10:18 45.02549 39.17213 589 ft 179 kts 232°
2026-05-08 10:18 45.01753 39.15774 1318 ft 191 kts 233°
2026-05-08 10:18 45.00885 39.14323 2131 ft 199 kts 227°
2026-05-08 10:19 44.99853 39.12852 2342 ft 222 kts 226°
2026-05-08 10:19 44.98699 39.11233 2587 ft 244 kts 226°
2026-05-08 10:19 44.97473 39.09496 3159 ft 253 kts 226°
2026-05-08 10:20 44.94948 39.05862 4402 ft 264 kts 225°
2026-05-08 10:20 44.93654 39.03979 4993 ft 270 kts 225°
2026-05-08 10:20 44.92338 39.02053 5591 ft 274 kts 225°
2026-05-08 10:20 44.91006 39.00097 6222 ft 279 kts 225°
2026-05-08 10:21 44.89654 38.98111 6907 ft 281 kts 225°
2026-05-08 10:21 44.88295 38.96110 7529 ft 285 kts 225°
2026-05-08 10:21 44.86912 38.94074 8208 ft 288 kts 225°
2026-05-08 10:21 44.85532 38.92044 8881 ft 292 kts 225°
2026-05-08 10:22 44.84122 38.89971 9573 ft 295 kts 225°
2026-05-08 10:22 44.82690 38.87863 10260 ft 299 kts 225°
2026-05-08 10:22 44.81220 38.85707 10611 ft 316 kts 225°
2026-05-08 10:22 44.79623 38.83376 10781 ft 337 kts 223°
2026-05-08 10:23 44.77675 38.81513 11002 ft 350 kts 198°
2026-05-08 10:23 44.75274 38.80984 11565 ft 351 kts 175°
2026-05-08 10:23 44.72884 38.81634 12260 ft 351 kts 164°
2026-05-08 10:23 44.70508 38.82529 12957 ft 354 kts 163°
2026-05-08 10:24 44.68114 38.83467 13614 ft 359 kts 162°
2026-05-08 10:24 44.65690 38.84416 14259 ft 363 kts 163°
2026-05-08 10:24 44.64070 38.85042 14677 ft 366 kts 163°
2026-05-08 10:24 44.61601 38.85985 15281 ft 370 kts 163°
2026-05-08 10:25 44.59100 38.86930 15883 ft 375 kts 163°
2026-05-08 10:25 44.56556 38.87883 16498 ft 380 kts 163°
2026-05-08 10:25 44.53993 38.88837 17135 ft 383 kts 164°
2026-05-08 10:25 44.51397 38.89801 17762 ft 387 kts 164°
2026-05-08 10:26 44.48779 38.90773 18363 ft 392 kts 164°
2026-05-08 10:26 44.46131 38.91755 18897 ft 396 kts 164°
2026-05-08 10:26 44.43447 38.92749 19418 ft 400 kts 164°
2026-05-08 10:26 44.40739 38.93751 19969 ft 403 kts 164°
2026-05-08 10:27 44.38012 38.94760 20510 ft 406 kts 164°
2026-05-08 10:27 44.35261 38.95776 21023 ft 410 kts 164°
2026-05-08 10:27 44.32494 38.96791 21514 ft 414 kts 165°
2026-05-08 10:27 44.29675 38.97729 22008 ft 418 kts 166°
2026-05-08 10:28 44.26830 38.98613 22503 ft 421 kts 166°
2026-05-08 10:28 44.23951 38.99503 22984 ft 425 kts 166°
2026-05-08 10:28 44.21052 39.00416 23487 ft 428 kts 166°
2026-05-08 10:28 44.18130 39.01350 23898 ft 432 kts 165°
2026-05-08 10:29 44.15282 39.02683 24261 ft 434 kts 153°
2026-05-08 10:29 44.12655 39.04725 24666 ft 433 kts 143°
2026-05-08 10:29 44.10307 39.07359 25050 ft 433 kts 134°
2026-05-08 10:29 44.08157 39.10321 25427 ft 435 kts 132°
2026-05-08 10:30 44.06041 39.13289 25775 ft 438 kts 132°
2026-05-08 10:30 44.03854 39.16337 26145 ft 441 kts 132°
2026-05-08 10:30 44.01691 39.19315 26518 ft 444 kts 133°
2026-05-08 10:30 43.99475 39.22334 26885 ft 446 kts 133°
2026-05-08 10:31 43.97249 39.25351 27210 ft 449 kts 133°
2026-05-08 10:31 43.95001 39.28392 27551 ft 452 kts 133°
2026-05-08 10:31 43.92843 39.31552 27857 ft 451 kts 125°
2026-05-08 10:31 43.91087 39.35154 28189 ft 450 kts 116°
2026-05-08 10:32 43.89741 39.39063 28505 ft 448 kts 106°
2026-05-08 10:32 43.88793 39.43179 28809 ft 448 kts 103°
2026-05-08 10:32 43.87910 39.47324 29121 ft 450 kts 103°
2026-05-08 10:32 43.87022 39.51502 29424 ft 452 kts 103°
2026-05-08 10:33 43.86120 39.55680 29706 ft 454 kts 103°
2026-05-08 10:33 43.85195 39.59888 30021 ft 456 kts 103°
2026-05-08 10:33 43.84258 39.64095 30407 ft 455 kts 103°
2026-05-08 10:33 43.83318 39.68282 30806 ft 453 kts 103°
2026-05-08 10:34 43.82382 39.72437 31153 ft 452 kts 103°
2026-05-08 10:34 43.81444 39.76601 31487 ft 452 kts 104°
2026-05-08 10:34 43.80512 39.80740 31872 ft 450 kts 104°
2026-05-08 10:34 43.79581 39.84861 32260 ft 449 kts 104°
2026-05-08 10:35 43.78820 39.89036 32561 ft 445 kts 95°
2026-05-08 10:35 43.78566 39.93290 32869 ft 441 kts 86°
2026-05-08 10:35 43.78771 39.97496 33159 ft 437 kts 78°
2026-05-08 10:35 43.79293 40.01588 33438 ft 436 kts 77°
2026-05-08 10:36 43.79861 40.05762 33763 ft 436 kts 76°
2026-05-08 10:36 43.80417 40.09836 34071 ft 436 kts 77°
2026-05-08 10:36 43.80967 40.13953 34308 ft 436 kts 77°
2026-05-08 10:36 43.81509 40.18092 34497 ft 437 kts 77°
2026-05-08 10:37 43.82040 40.22230 34690 ft 437 kts 77°
2026-05-08 10:37 43.82567 40.26388 34919 ft 438 kts 78°
2026-05-08 10:37 43.83091 40.30550 35109 ft 438 kts 78°
2026-05-08 10:38 43.84141 40.38933 35182 ft 444 kts 78°
2026-05-08 10:38 43.85189 40.47357 35160 ft 440 kts 78°
2026-05-08 10:39 43.86209 40.55601 35169 ft 436 kts 78°
2026-05-08 10:39 43.87231 40.63885 35172 ft 436 kts 78°
2026-05-08 10:40 43.88422 40.72132 35157 ft 434 kts 70°
2026-05-08 10:40 43.90752 40.79828 35163 ft 433 kts 64°
2026-05-08 10:41 43.93202 40.87466 35164 ft 433 kts 65°
2026-05-08 10:41 43.95616 40.95141 35167 ft 434 kts 65°
2026-05-08 10:42 43.98006 41.02851 35165 ft 435 kts 65°
2026-05-08 10:42 44.00390 41.10586 35157 ft 436 kts 65°
2026-05-08 10:43 44.02771 41.18328 35155 ft 436 kts 66°
2026-05-08 10:43 44.05130 41.26023 35156 ft 435 kts 66°
2026-05-08 10:44 44.07500 41.33774 35152 ft 435 kts 66°
2026-05-08 10:44 44.09865 41.41530 35151 ft 435 kts 66°
2026-05-08 10:45 44.11574 41.49594 35156 ft 437 kts 81°
2026-05-08 10:45 44.11655 41.58049 35155 ft 438 kts 91°
2026-05-08 10:46 44.11376 41.66510 35152 ft 437 kts 91°
2026-05-08 10:46 44.11105 41.74977 35157 ft 437 kts 90°
2026-05-08 10:47 44.10857 41.83413 35149 ft 437 kts 90°
2026-05-08 10:47 44.10617 41.91857 35153 ft 437 kts 90°
2026-05-08 10:48 44.10374 42.00302 35150 ft 437 kts 90°
2026-05-08 10:48 44.10125 42.08703 35159 ft 437 kts 90°
2026-05-08 10:49 44.09868 42.17148 35156 ft 437 kts 91°
2026-05-08 10:49 44.09605 42.25598 35159 ft 437 kts 91°
2026-05-08 10:50 44.09335 42.34054 35157 ft 437 kts 91°
2026-05-08 10:50 44.09058 42.42511 35158 ft 438 kts 91°
2026-05-08 10:51 44.08776 42.50961 35152 ft 438 kts 91°
2026-05-08 10:51 44.08486 42.59439 35156 ft 438 kts 91°
2026-05-08 10:52 44.08191 42.67900 35152 ft 438 kts 91°
2026-05-08 10:52 44.07889 42.76359 35158 ft 438 kts 91°
2026-05-08 10:53 44.07582 42.84817 35148 ft 438 kts 91°
2026-05-08 10:53 44.07268 42.93270 35148 ft 437 kts 91°
2026-05-08 10:54 44.06951 43.01655 35155 ft 437 kts 91°
2026-05-08 10:54 44.06623 43.10145 35157 ft 436 kts 91°
2026-05-08 10:55 44.06293 43.18522 35140 ft 437 kts 91°
2026-05-08 10:55 44.05956 43.26952 35139 ft 436 kts 92°
2026-05-08 10:56 44.05611 43.35391 35122 ft 436 kts 92°
2026-05-08 10:56 44.05261 43.43807 35126 ft 436 kts 92°
2026-05-08 10:57 44.04905 43.52226 35129 ft 435 kts 92°
2026-05-08 10:57 44.04361 43.64825 35130 ft 434 kts 92°
2026-05-08 10:58 44.03993 43.73166 35115 ft 434 kts 92°
2026-05-08 10:58 44.03617 43.81536 35114 ft 434 kts 92°
2026-05-08 10:59 44.03236 43.89891 35111 ft 433 kts 92°
2026-05-08 10:59 44.02850 43.98228 35121 ft 432 kts 92°
2026-05-08 11:00 44.02458 44.06550 35122 ft 431 kts 92°
2026-05-08 11:00 44.02061 44.14858 35131 ft 431 kts 93°
2026-05-08 11:01 44.01658 44.23163 35132 ft 431 kts 93°
2026-05-08 11:01 44.01250 44.31432 35143 ft 431 kts 93°
2026-05-08 11:02 44.00624 44.43911 35153 ft 432 kts 93°
2026-05-08 11:03 44.00199 44.52235 35147 ft 432 kts 93°
2026-05-08 11:03 43.99767 44.60567 35144 ft 433 kts 93°
2026-05-08 11:04 43.99329 44.68912 35141 ft 434 kts 93°
2026-05-08 11:04 43.98958 44.75865 35154 ft 434 kts 93°
2026-05-08 11:05 43.98506 44.84252 35148 ft 435 kts 94°
2026-05-08 11:05 43.98048 44.92628 35145 ft 435 kts 94°
2026-05-08 11:06 43.97585 45.00997 35132 ft 434 kts 94°
2026-05-08 11:06 43.97116 45.09357 35141 ft 434 kts 94°
2026-05-08 11:07 43.96640 45.17722 35142 ft 435 kts 94°
2026-05-08 11:07 43.96158 45.26094 35136 ft 435 kts 94°
2026-05-08 11:08 43.95669 45.34478 35129 ft 436 kts 94°
2026-05-08 11:08 43.95173 45.42871 35129 ft 436 kts 94°
2026-05-08 11:09 43.94670 45.51269 35135 ft 437 kts 94°
2026-05-08 11:09 43.94165 45.59618 35128 ft 437 kts 95°
2026-05-08 11:10 43.93650 45.68020 35122 ft 437 kts 95°
2026-05-08 11:10 43.93129 45.76428 35129 ft 436 kts 95°
2026-05-08 11:11 43.92602 45.84832 35127 ft 436 kts 95°
2026-05-08 11:11 43.92200 45.93224 35120 ft 436 kts 91°
2026-05-08 11:12 43.92211 46.01569 35112 ft 436 kts 89°
2026-05-08 11:12 43.92278 46.09973 35111 ft 436 kts 89°
2026-05-08 11:13 43.92309 46.18392 35121 ft 436 kts 90°
2026-05-08 11:13 43.92308 46.26825 35117 ft 437 kts 90°
2026-05-08 11:14 43.92293 46.35312 35101 ft 438 kts 90°
2026-05-08 11:14 43.92271 46.43724 35101 ft 439 kts 90°
2026-05-08 11:15 43.92243 46.52187 35110 ft 439 kts 90°
2026-05-08 11:15 43.92209 46.60665 35112 ft 440 kts 91°
2026-05-08 11:16 43.92169 46.69161 35107 ft 441 kts 91°
2026-05-08 11:16 43.92122 46.77675 35094 ft 442 kts 91°
2026-05-08 11:17 43.92069 46.86201 35100 ft 442 kts 91°
2026-05-08 11:17 43.92010 46.94722 35101 ft 442 kts 91°
2026-05-08 11:18 43.91944 47.03279 35097 ft 443 kts 91°
2026-05-08 11:18 43.91872 47.11833 35092 ft 444 kts 91°
2026-05-08 11:19 43.91794 47.20352 35084 ft 445 kts 91°
2026-05-08 11:19 43.91708 47.28952 35091 ft 446 kts 91°
2026-05-08 11:20 43.91616 47.37588 35078 ft 447 kts 91°
2026-05-08 11:20 43.91517 47.46224 35080 ft 448 kts 92°
2026-05-08 11:21 43.91412 47.54873 35076 ft 449 kts 91°
2026-05-08 11:21 43.91300 47.63533 35070 ft 449 kts 92°
2026-05-08 11:22 43.91181 47.72209 35079 ft 450 kts 92°
2026-05-08 11:22 43.91055 47.80908 35071 ft 452 kts 92°
2026-05-08 11:23 43.90922 47.89630 35072 ft 453 kts 92°
2026-05-08 11:23 43.90783 47.98372 35074 ft 454 kts 92°
2026-05-08 11:24 43.90636 48.07128 35073 ft 454 kts 92°
2026-05-08 11:24 43.90483 48.15892 35057 ft 455 kts 92°
2026-05-08 11:25 43.90323 48.24663 35071 ft 455 kts 92°
2026-05-08 11:25 43.90156 48.33439 35073 ft 455 kts 92°
2026-05-08 11:26 43.89983 48.42163 35075 ft 455 kts 92°
2026-05-08 11:26 43.89802 48.50947 35070 ft 456 kts 92°
2026-05-08 11:27 43.89615 48.59729 35065 ft 455 kts 93°
2026-05-08 11:27 43.89421 48.68522 35055 ft 455 kts 93°
2026-05-08 11:28 43.89219 48.77316 35071 ft 456 kts 93°
2026-05-08 11:28 43.89012 48.86102 35069 ft 456 kts 93°
2026-05-08 11:29 43.88797 48.94900 35070 ft 457 kts 93°
2026-05-08 11:29 43.88575 49.03708 35072 ft 457 kts 93°
2026-05-08 11:30 43.88346 49.12540 35070 ft 458 kts 93°
2026-05-08 11:30 43.88111 49.21368 35063 ft 459 kts 94°
2026-05-08 11:31 43.87869 49.30151 35077 ft 459 kts 94°
2026-05-08 11:31 43.87619 49.39029 35077 ft 461 kts 94°
2026-05-08 11:32 43.87362 49.47901 35075 ft 462 kts 94°
2026-05-08 11:32 43.87227 49.56819 35071 ft 464 kts 91°
2026-05-08 11:33 43.87319 49.65765 35069 ft 464 kts 91°
2026-05-08 11:33 43.87410 49.74718 35071 ft 464 kts 91°
2026-05-08 11:34 43.87460 49.83686 35074 ft 464 kts 91°
2026-05-08 11:34 43.87486 49.92635 35072 ft 464 kts 91°
2026-05-08 11:35 43.87502 50.01575 35068 ft 463 kts 91°
2026-05-08 11:35 43.87513 50.10503 35071 ft 463 kts 91°
2026-05-08 11:36 43.87517 50.19421 35059 ft 462 kts 92°
2026-05-08 11:36 43.87515 50.28286 35060 ft 462 kts 92°
2026-05-08 11:37 43.87506 50.37201 35066 ft 463 kts 92°
2026-05-08 11:37 43.87490 50.46135 35071 ft 464 kts 92°
2026-05-08 11:38 43.87466 50.55101 35072 ft 466 kts 92°
2026-05-08 11:38 43.87436 50.64101 35067 ft 468 kts 92°
2026-05-08 11:39 43.87399 50.73130 35073 ft 469 kts 92°
2026-05-08 11:39 43.87354 50.82185 35075 ft 470 kts 93°
2026-05-08 11:40 43.87304 50.91261 35065 ft 471 kts 93°
2026-05-08 11:40 43.87424 50.95814 35051 ft 475 kts 81°
2026-05-08 11:40 43.88471 51.00152 35092 ft 478 kts 63°
2026-05-08 11:40 43.90393 51.03924 35056 ft 480 kts 45°
2026-05-08 11:41 43.92974 51.06826 35055 ft 479 kts 30°
2026-05-08 11:41 43.96008 51.08720 35042 ft 475 kts 12°
2026-05-08 11:41 43.99228 51.09645 35083 ft 473 kts
2026-05-08 11:42 44.05743 51.11123 35061 ft 475 kts
2026-05-08 11:42 44.11186 51.12349 35046 ft 475 kts
2026-05-08 11:43 44.17698 51.13904 35043 ft 475 kts
2026-05-08 11:43 44.24217 51.15512 35049 ft 474 kts
2026-05-08 11:44 44.30701 51.17123 35031 ft 472 kts
2026-05-08 11:44 44.37152 51.18727 35025 ft 469 kts
2026-05-08 11:45 44.44591 51.20577 35017 ft 466 kts
2026-05-08 11:45 44.49930 51.21908 35023 ft 464 kts
2026-05-08 11:46 44.56273 51.23491 35024 ft 462 kts
2026-05-08 11:46 44.62564 51.25066 35024 ft 462 kts
2026-05-08 11:47 44.68902 51.26656 35015 ft 463 kts
2026-05-08 11:47 44.75252 51.28252 35020 ft 464 kts
2026-05-08 11:48 44.81622 51.29846 35025 ft 465 kts
2026-05-08 11:48 44.88031 51.31211 35016 ft 466 kts
2026-05-08 11:49 44.94458 51.32494 35006 ft 466 kts
2026-05-08 11:49 45.00889 51.33807 35009 ft 467 kts
2026-05-08 11:50 45.07317 51.35146 35015 ft 467 kts
2026-05-08 11:50 45.13738 51.36495 34996 ft 466 kts
2026-05-08 11:51 45.20142 51.37842 35000 ft 464 kts
2026-05-08 11:51 45.26528 51.39188 34987 ft 463 kts
2026-05-08 11:52 45.32892 51.40531 35016 ft 461 kts
2026-05-08 11:52 45.39227 51.41872 34983 ft 459 kts
2026-05-08 11:53 45.45524 51.43208 34984 ft 456 kts
2026-05-08 11:53 45.51783 51.44538 34980 ft 453 kts
2026-05-08 11:54 45.58009 51.45865 34984 ft 451 kts
2026-05-08 11:54 45.64214 51.47189 34971 ft 449 kts
2026-05-08 11:55 45.70351 51.48503 34964 ft 447 kts
2026-05-08 11:55 45.76496 51.49825 34963 ft 446 kts
2026-05-08 11:56 45.82627 51.51148 34965 ft 445 kts
2026-05-08 11:56 45.88754 51.52473 34967 ft 445 kts
2026-05-08 11:57 45.94895 51.53804 34959 ft 445 kts
2026-05-08 11:57 46.01029 51.55136 34957 ft 446 kts
2026-05-08 11:58 46.07159 51.56470 34950 ft 446 kts
2026-05-08 11:58 46.13308 51.57811 34952 ft 447 kts
2026-05-08 11:59 46.22553 51.59834 34939 ft 448 kts
2026-05-08 11:59 46.28710 51.61185 34937 ft 448 kts
2026-05-08 12:00 46.34892 51.62545 34933 ft 448 kts
2026-05-08 12:00 46.41061 51.63905 34933 ft 448 kts
2026-05-08 12:01 46.47228 51.65263 34925 ft 448 kts
2026-05-08 12:01 46.53391 51.66617 34917 ft 447 kts
2026-05-08 12:02 46.59545 51.67971 34918 ft 447 kts
2026-05-08 12:02 46.65691 51.69328 34908 ft 446 kts
2026-05-08 12:03 46.71838 51.70689 34914 ft 445 kts
2026-05-08 12:03 46.77963 51.72049 34902 ft 445 kts
2026-05-08 12:04 46.84046 51.73401 34902 ft 444 kts
2026-05-08 12:04 46.90145 51.74761 34900 ft 443 kts
2026-05-08 12:05 46.96237 51.76122 34892 ft 442 kts
2026-05-08 12:05 47.02307 51.77482 34893 ft 441 kts
2026-05-08 12:06 47.08375 51.78844 34882 ft 440 kts
2026-05-08 12:06 47.14442 51.80146 34881 ft 438 kts
2026-05-08 12:07 47.20503 51.80045 34888 ft 435 kts 354°
2026-05-08 12:07 47.26544 51.79565 34883 ft 435 kts 354°
2026-05-08 12:08 47.32596 51.79135 34881 ft 434 kts 355°
2026-05-08 12:08 47.38639 51.78759 34880 ft 435 kts 355°
2026-05-08 12:09 47.44689 51.78399 34873 ft 435 kts 355°
2026-05-08 12:09 47.50745 51.78040 34876 ft 435 kts 355°
2026-05-08 12:10 47.56802 51.77678 34883 ft 435 kts 355°
2026-05-08 12:10 47.62860 51.77315 34875 ft 436 kts 355°
2026-05-08 12:11 47.68919 51.76950 34872 ft 435 kts 355°
2026-05-08 12:11 47.74976 51.76585 34864 ft 436 kts 355°
2026-05-08 12:12 47.81019 51.76220 34878 ft 435 kts 356°
2026-05-08 12:12 47.87061 51.75854 34875 ft 434 kts 355°
2026-05-08 12:13 47.93103 51.75479 34868 ft 434 kts 355°
2026-05-08 12:13 47.99093 51.75103 34863 ft 433 kts 356°
2026-05-08 12:14 48.05128 51.74724 34869 ft 433 kts 356°
2026-05-08 12:14 48.11146 51.74346 34866 ft 432 kts 356°
2026-05-08 12:15 48.17150 51.73968 34866 ft 431 kts 356°
2026-05-08 12:15 48.23141 51.73590 34877 ft 430 kts 356°
2026-05-08 12:16 48.29136 51.73211 34867 ft 430 kts 356°
2026-05-08 12:16 48.35106 51.72833 34867 ft 430 kts 356°
2026-05-08 12:17 48.41101 51.72452 34869 ft 430 kts 356°
2026-05-08 12:17 48.47046 51.72074 34865 ft 430 kts 356°
2026-05-08 12:18 48.52048 51.71754 34865 ft 430 kts 356°
2026-05-08 12:18 48.58998 51.71310 34887 ft 429 kts 357°
2026-05-08 12:19 48.63972 51.70991 34865 ft 430 kts 357°
2026-05-08 12:19 48.69952 51.70607 34867 ft 430 kts 357°
2026-05-08 12:20 48.75941 51.70221 34867 ft 430 kts 357°
2026-05-08 12:20 48.81924 51.69835 34866 ft 430 kts 357°
2026-05-08 12:21 48.84919 51.69641 34994 ft 432 kts 357°
2026-05-08 12:21 48.87943 51.69445 35153 ft 434 kts 357°
2026-05-08 12:21 48.90944 51.69251 35556 ft 430 kts 357°
2026-05-08 12:21 48.93931 51.69058 35763 ft 429 kts 357°
2026-05-08 12:22 48.96911 51.68864 35864 ft 430 kts 357°
2026-05-08 12:22 48.99921 51.68668 35860 ft 434 kts 357°
2026-05-08 12:22 49.05979 51.68273 35855 ft 436 kts 357°
2026-05-08 12:23 49.12049 51.67876 35870 ft 436 kts 357°
2026-05-08 12:23 49.18052 51.67484 35862 ft 429 kts 357°
2026-05-08 12:24 49.24008 51.67093 35865 ft 429 kts 357°
2026-05-08 12:24 49.29985 51.66700 35881 ft 429 kts 357°
2026-05-08 12:25 49.35962 51.66306 35860 ft 430 kts 357°
2026-05-08 12:25 49.41947 51.65911 35868 ft 431 kts 357°
2026-05-08 12:26 49.47903 51.65516 35870 ft 431 kts 358°
2026-05-08 12:26 49.53894 51.65119 35863 ft 431 kts 358°
2026-05-08 12:27 49.59893 51.64720 35865 ft 431 kts 357°
2026-05-08 12:27 49.65885 51.64320 35861 ft 431 kts 358°
2026-05-08 12:28 49.71876 51.63919 35865 ft 430 kts 358°
2026-05-08 12:28 49.77854 51.63518 35864 ft 430 kts 358°
2026-05-08 12:29 49.83814 51.63118 35866 ft 429 kts 358°
2026-05-08 12:29 49.89792 51.62715 35861 ft 429 kts 358°
2026-05-08 12:30 49.95757 51.62312 35861 ft 429 kts 358°
2026-05-08 12:30 50.01721 51.61908 35866 ft 429 kts 358°
2026-05-08 12:31 50.07696 51.61503 35869 ft 429 kts 358°
2026-05-08 12:31 50.13669 51.61097 35863 ft 430 kts 358°
2026-05-08 12:32 50.19614 51.60691 35858 ft 431 kts 358°
2026-05-08 12:32 50.25636 51.60279 35864 ft 431 kts 358°
2026-05-08 12:33 50.31634 51.59868 35864 ft 431 kts 358°
2026-05-08 12:33 50.37647 51.59455 35866 ft 432 kts 358°
2026-05-08 12:34 50.43615 51.59045 35874 ft 432 kts 358°
2026-05-08 12:34 50.49618 51.58654 35858 ft 432 kts 358°
2026-05-08 12:35 50.55633 51.58271 35865 ft 432 kts 358°
2026-05-08 12:35 50.61647 51.57884 35867 ft 432 kts 358°
2026-05-08 12:36 50.67665 51.57495 35863 ft 433 kts 358°
2026-05-08 12:36 50.73684 51.57104 35863 ft 433 kts 358°
2026-05-08 12:37 50.79702 51.56712 35861 ft 432 kts 358°
2026-05-08 12:37 50.85715 51.56319 35860 ft 432 kts 358°
2026-05-08 12:38 50.91727 51.55926 35860 ft 432 kts 358°
2026-05-08 12:38 50.97747 51.55531 35859 ft 432 kts 358°
2026-05-08 12:39 51.03758 51.55136 35859 ft 432 kts 358°
2026-05-08 12:39 51.09765 51.54761 35856 ft 431 kts
2026-05-08 12:40 51.12714 51.55526 35856 ft 429 kts 20°
2026-05-08 12:40 51.15366 51.57671 35856 ft 430 kts 34°
2026-05-08 12:40 51.17612 51.60791 35855 ft 431 kts 49°
2026-05-08 12:40 51.19376 51.64664 35874 ft 431 kts 55°
2026-05-08 12:41 51.22628 51.72668 35856 ft 432 kts 56°
2026-05-08 12:41 51.25884 51.80739 35850 ft 433 kts 56°
2026-05-08 12:42 51.29195 51.88816 35853 ft 434 kts 56°
2026-05-08 12:42 51.32516 51.96881 35860 ft 434 kts 56°
2026-05-08 12:43 51.35841 52.04974 35854 ft 435 kts 56°
2026-05-08 12:43 51.39154 52.13065 35844 ft 434 kts 56°
2026-05-08 12:44 51.42457 52.21161 35852 ft 434 kts 56°
2026-05-08 12:44 51.45752 52.29257 35857 ft 433 kts 56°
2026-05-08 12:45 51.49042 52.37347 35850 ft 433 kts 57°
2026-05-08 12:45 51.52344 52.45416 35844 ft 432 kts 53°
2026-05-08 12:46 51.54346 52.48991 35849 ft 432 kts 41°
2026-05-08 12:46 51.56744 52.51902 35852 ft 432 kts 32°
2026-05-08 12:46 51.62238 52.55802 35858 ft 433 kts 21°
2026-05-08 12:47 51.67900 52.59182 35844 ft 433 kts 21°
2026-05-08 12:47 51.73546 52.62602 35854 ft 434 kts 22°
2026-05-08 12:48 51.79186 52.66088 35917 ft 440 kts 22°
2026-05-08 12:48 51.82057 52.67876 36101 ft 441 kts 22°
2026-05-08 12:48 51.84923 52.69665 36419 ft 439 kts 22°
2026-05-08 12:49 51.87782 52.71453 36620 ft 441 kts 21°
2026-05-08 12:49 51.90659 52.73254 36713 ft 444 kts 21°
2026-05-08 12:49 51.93532 52.75054 36868 ft 445 kts 21°
2026-05-08 12:49 51.96431 52.76873 36847 ft 446 kts 22°
2026-05-08 12:50 52.02204 52.80503 36854 ft 444 kts 21°
2026-05-08 12:50 52.07936 52.84116 36851 ft 440 kts 21°
2026-05-08 12:51 52.16480 52.89522 36856 ft 437 kts 21°
2026-05-08 12:52 52.22151 52.93123 36860 ft 437 kts 21°
2026-05-08 12:52 52.30659 52.98543 36848 ft 439 kts 21°
2026-05-08 12:53 52.36368 53.02193 36864 ft 441 kts 22°
2026-05-08 12:53 52.42111 53.05874 36853 ft 444 kts 22°
2026-05-08 12:54 52.47846 53.09559 36861 ft 447 kts 22°
2026-05-08 12:54 52.53645 53.13297 36865 ft 448 kts 21°
2026-05-08 12:55 52.59471 53.17064 36857 ft 450 kts 21°
2026-05-08 12:55 52.65314 53.20851 36861 ft 451 kts 22°
2026-05-08 12:56 52.71048 53.25070 36860 ft 452 kts 26°
2026-05-08 12:56 52.76699 53.29632 36852 ft 451 kts 26°
2026-05-08 12:57 52.81391 53.33422 36861 ft 451 kts 26°
2026-05-08 12:57 52.87036 53.37935 36856 ft 450 kts 26°
2026-05-08 12:58 52.92682 53.42433 36854 ft 450 kts 25°
2026-05-08 12:58 52.98318 53.46931 36850 ft 449 kts 25°
2026-05-08 12:59 53.03946 53.51438 36859 ft 448 kts 25°
2026-05-08 12:59 53.09563 53.55951 36850 ft 448 kts 25°
2026-05-08 13:00 53.15180 53.60477 36856 ft 448 kts 25°
2026-05-08 13:00 53.20796 53.65016 36857 ft 449 kts 25°
2026-05-08 13:01 53.26421 53.69576 36859 ft 450 kts 25°
2026-05-08 13:01 53.32054 53.74155 36860 ft 450 kts 25°
2026-05-08 13:02 53.37681 53.78657 36853 ft 451 kts 22°
2026-05-08 13:02 53.40587 53.80638 36698 ft 454 kts 20°
2026-05-08 13:02 53.43570 53.82516 36143 ft 457 kts 19°
2026-05-08 13:03 53.46538 53.84332 35592 ft 454 kts 20°
2026-05-08 13:03 53.49499 53.86149 35066 ft 452 kts 20°
2026-05-08 13:03 53.52437 53.87977 34647 ft 447 kts 21°
2026-05-08 13:03 53.55343 53.89810 34214 ft 443 kts 21°
2026-05-08 13:04 53.58181 53.91620 33784 ft 439 kts 22°
2026-05-08 13:04 53.61030 53.93449 33287 ft 435 kts 21°
2026-05-08 13:04 53.63840 53.95261 32851 ft 430 kts 22°
2026-05-08 13:04 53.66617 53.97055 32427 ft 426 kts 22°
2026-05-08 13:05 53.69374 53.98840 32014 ft 421 kts 22°
2026-05-08 13:05 53.72091 54.00600 31598 ft 417 kts 21°
2026-05-08 13:05 53.74791 54.02351 31193 ft 413 kts 22°
2026-05-08 13:05 53.77455 54.04080 30792 ft 409 kts 22°
2026-05-08 13:06 53.80102 54.05800 30400 ft 405 kts 22°
2026-05-08 13:06 53.82716 54.07501 30000 ft 401 kts 21°
2026-05-08 13:06 53.85314 54.09195 29563 ft 397 kts 21°
2026-05-08 13:06 53.87874 54.10865 29176 ft 392 kts 22°
2026-05-08 13:07 53.90409 54.12522 28761 ft 387 kts 22°
2026-05-08 13:07 53.92905 54.14155 28360 ft 383 kts 21°
2026-05-08 13:07 53.95382 54.15777 27963 ft 379 kts 22°
2026-05-08 13:07 53.97832 54.17384 27575 ft 375 kts 22°
2026-05-08 13:08 54.00249 54.18972 27170 ft 371 kts 21°
2026-05-08 13:08 54.02643 54.20546 26798 ft 368 kts 21°
2026-05-08 13:08 54.05023 54.22114 26406 ft 365 kts 21°
2026-05-08 13:08 54.07383 54.23670 26022 ft 361 kts 21°
2026-05-08 13:09 54.09724 54.25215 25644 ft 359 kts 21°
2026-05-08 13:09 54.12008 54.26724 25276 ft 356 kts 21°
2026-05-08 13:09 54.14336 54.28264 24904 ft 353 kts 21°
2026-05-08 13:09 54.16594 54.29759 24531 ft 351 kts 21°
2026-05-08 13:10 54.18839 54.31246 24361 ft 343 kts 21°
2026-05-08 13:10 54.21064 54.32720 24006 ft 341 kts 21°
2026-05-08 13:10 54.23267 54.34181 23673 ft 339 kts 21°
2026-05-08 13:10 54.25466 54.35642 23288 ft 338 kts 21°
2026-05-08 13:11 54.27656 54.37098 22882 ft 336 kts 21°
2026-05-08 13:11 54.29826 54.38542 22495 ft 334 kts 21°
2026-05-08 13:11 54.31982 54.39979 22135 ft 332 kts 21°
2026-05-08 13:11 54.34132 54.41413 21763 ft 330 kts 21°
2026-05-08 13:12 54.36163 54.43209 21376 ft 329 kts 39°
2026-05-08 13:12 54.37653 54.46148 21076 ft 327 kts 58°
2026-05-08 13:12 54.38510 54.49749 20704 ft 329 kts 74°
2026-05-08 13:12 54.39026 54.53590 20351 ft 330 kts 76°
2026-05-08 13:13 54.39489 54.57471 19993 ft 336 kts 77°
2026-05-08 13:13 54.39946 54.61394 19635 ft 342 kts 77°
2026-05-08 13:13 54.40415 54.65402 19248 ft 343 kts 76°
2026-05-08 13:13 54.40890 54.69411 18876 ft 341 kts 76°
2026-05-08 13:14 54.41367 54.73398 18504 ft 340 kts 76°
2026-05-08 13:14 54.41843 54.77355 18139 ft 338 kts 76°
2026-05-08 13:14 54.42320 54.81307 17716 ft 336 kts 76°
2026-05-08 13:14 54.42793 54.85224 17326 ft 334 kts 76°
2026-05-08 13:15 54.43265 54.89126 16953 ft 332 kts 76°
2026-05-08 13:15 54.43730 54.92991 16584 ft 330 kts 76°
2026-05-08 13:15 54.44193 54.96841 16223 ft 327 kts 76°
2026-05-08 13:15 54.44650 55.00651 15868 ft 325 kts 76°
2026-05-08 13:16 54.45098 55.04397 15519 ft 323 kts 76°
2026-05-08 13:16 54.45548 55.08172 15168 ft 320 kts 76°
2026-05-08 13:16 54.45993 55.11913 14820 ft 319 kts 76°
2026-05-08 13:16 54.46434 55.15634 14471 ft 317 kts 76°
2026-05-08 13:17 54.46872 55.19336 14128 ft 315 kts 76°
2026-05-08 13:17 54.47307 55.23025 13769 ft 314 kts 76°
2026-05-08 13:17 54.47739 55.26695 13401 ft 313 kts 76°
2026-05-08 13:17 54.48169 55.30364 13040 ft 311 kts 76°
2026-05-08 13:18 54.48595 55.34006 12659 ft 310 kts 76°
2026-05-08 13:18 54.49018 55.37622 12322 ft 307 kts 76°
2026-05-08 13:18 54.49436 55.41217 11976 ft 306 kts 76°
2026-05-08 13:18 54.49851 55.44799 11636 ft 304 kts 76°
2026-05-08 13:19 54.50248 55.48370 11295 ft 304 kts 81°
2026-05-08 13:19 54.50064 55.51986 10928 ft 308 kts 107°
2026-05-08 13:19 54.48968 55.55121 10678 ft 309 kts 131°
2026-05-08 13:19 54.47239 55.57303 10443 ft 312 kts 153°
2026-05-08 13:20 54.45269 55.58799 10205 ft 308 kts 156°
2026-05-08 13:20 54.43292 55.60204 9945 ft 305 kts 156°
2026-05-08 13:20 54.41346 55.61580 9792 ft 297 kts 156°
2026-05-08 13:20 54.39442 55.62941 9459 ft 297 kts 156°
2026-05-08 13:21 54.37547 55.64307 9226 ft 294 kts 156°
2026-05-08 13:21 54.35674 55.65667 8968 ft 291 kts 156°
2026-05-08 13:21 54.33820 55.67017 8726 ft 287 kts 156°
2026-05-08 13:21 54.31994 55.68346 8505 ft 283 kts 156°
2026-05-08 13:22 54.30188 55.69660 8276 ft 281 kts 156°
2026-05-08 13:22 54.28497 55.71255 8035 ft 276 kts 135°
2026-05-08 13:22 54.27449 55.73902 7861 ft 267 kts 107°
2026-05-08 13:22 54.27196 55.77021 7473 ft 266 kts 83°
2026-05-08 13:23 54.27662 55.80051 7119 ft 265 kts 62°
2026-05-08 13:23 54.28572 55.82791 6763 ft 266 kts 57°
2026-05-08 13:23 54.29560 55.85485 6390 ft 268 kts 57°
2026-05-08 13:23 54.30541 55.88187 6100 ft 268 kts 57°
2026-05-08 13:24 54.31509 55.90890 5702 ft 270 kts 58°
2026-05-08 13:24 54.32568 55.93595 5329 ft 270 kts 44°
2026-05-08 13:24 54.34070 55.95276 5321 ft 255 kts 22°
2026-05-08 13:24 54.35726 55.96177 5247 ft 245 kts 14°
2026-05-08 13:25 54.37332 55.96868 5199 ft 232 kts 14°
2026-05-08 13:25 54.38703 55.97462 4784 ft 234 kts 14°
2026-05-08 13:25 54.40161 55.98108 4399 ft 231 kts 15°
2026-05-08 13:25 54.41715 55.98798 3962 ft 230 kts 12°
2026-05-08 13:26 54.43286 55.98642 3475 ft 231 kts 338°
2026-05-08 13:26 54.44671 55.97256 3073 ft 229 kts 330°
2026-05-08 13:26 54.46049 55.95869 2618 ft 230 kts 332°
2026-05-08 13:26 54.47440 55.94475 2090 ft 233 kts 332°
2026-05-08 13:27 54.48838 55.93110 1731 ft 226 kts 332°
2026-05-08 13:27 54.50186 55.91815 1440 ft 218 kts 331°
2026-05-08 13:27 54.51474 55.90571 1151 ft 205 kts 331°
2026-05-08 13:27 54.52664 55.89426 891 ft 187 kts 331°
2026-05-08 13:28 54.53749 55.88379 664 ft 170 kts 330°
2026-05-08 13:28 54.54723 55.87431 431 ft 151 kts 330°
2026-05-08 13:28 54.55621 55.86573 413 ft 148 kts 329°
2026-05-08 13:28 54.56210 55.86003 410 ft 65 kts 330°
2026-05-08 13:29 54.56400 55.85816 412 ft 10 kts 325°
2026-05-08 13:29 54.56431 55.85774 409 ft 2 kts 356°
2026-05-08 13:29 54.56430 55.85794 412 ft 4 kts 141°
2026-05-08 13:29 54.56376 55.85843 410 ft 12 kts 152°
2026-05-08 13:30 54.56302 55.85913 413 ft 12 kts 150°
2026-05-08 13:30 54.56230 55.85983 411 ft 12 kts 151°
2026-05-08 13:30 54.56159 55.86050 412 ft 11 kts 151°
2026-05-08 13:30 54.56087 55.86120 408 ft 15 kts 150°
2026-05-08 13:31 54.55985 55.86219 414 ft 19 kts 150°
2026-05-08 13:31 54.55870 55.86332 412 ft 16 kts 145°
2026-05-08 13:31 54.55874 55.86499 412 ft 15 kts 60°
2026-05-08 13:31 54.55928 55.86660 411 ft 17 kts 60°
2026-05-08 13:32 54.55990 55.86850 407 ft 19 kts 60°
2026-05-08 13:32 54.56060 55.87061 400 ft 21 kts 60°
2026-05-08 13:32 54.56136 55.87295 393 ft 23 kts 60°
2026-05-08 13:32 54.56217 55.87541 389 ft 23 kts 60°
2026-05-08 13:33 54.56293 55.87770 389 ft 18 kts 60°
2026-05-08 13:33 54.56354 55.87955 388 ft 17 kts 61°
2026-05-08 13:33 54.56412 55.88133 389 ft 17 kts 60°
2026-05-08 13:33 54.56404 55.88258 389 ft 10 kts 149°
2026-05-08 13:34 54.56405 55.88329 389 ft 6 kts 62°
2026-05-08 13:34 54.56423 55.88386 389 ft 0 kts 60°